Hourly Weather Lukhovitsy

Today, 14 June, Monday

Time Temperature Precipitation Wind Pressure Humidity
00:00 +16°C° 0 mm 2 mps 746 mmHg 90%
01:00 +16°C° 0 mm 1 mps 746 mmHg 90%
02:00 +16°C° 0 mm 1 mps 746 mmHg 90%
03:00 +15°C° 0 mm 1 mps 747 mmHg 90%
04:00 +16°C° 0 mm 1 mps 747 mmHg 90%
05:00 +18°C° 0 mm 1 mps 747 mmHg 89%
06:00 +18°C° 0 mm 1 mps 748 mmHg 89%
07:00 +20°C° 0 mm 1 mps 748 mmHg 84%
08:00 +21°C° 0 mm 1 mps 748 mmHg 79%
09:00 +23°C° 0 mm 1 mps 749 mmHg 74%
10:00 +24°C° 0.2 mm 1 mps 749 mmHg 71%
11:00 +25°C° 0.2 mm 1 mps 749 mmHg 68%
12:00 +26°C° 0.2 mm 1 mps 749 mmHg 65%
13:00 +26°C° 0.2 mm 1 mps 749 mmHg 63%
14:00 +27°C° 0.2 mm 1 mps 749 mmHg 62%
15:00 +27°C° 0.2 mm 1 mps 749 mmHg 60%
16:00 +27°C° 0 mm 1 mps 749 mmHg 62%
17:00 +27°C° 0 mm 1 mps 749 mmHg 64%
18:00 +27°C° 0 mm 1 mps 749 mmHg 66%
19:00 +23°C° 0.4 mm 0 mps 749 mmHg 72%
20:00 +21°C° 0.4 mm 0 mps 749 mmHg 77%
21:00 +19°C° 0.4 mm 0 mps 749 mmHg 83%
22:00 +18°C° 0.1 mm 0 mps 749 mmHg 84%
23:00 +18°C° 0.1 mm 0 mps 749 mmHg 85%

Tomorrow, 15 June, Tuesday

Time Temperature Precipitation Wind Pressure Humidity
00:00 +17°C° 0.1 mm 0 mps 749 mmHg 86%
01:00 +17°C° 0 mm 0 mps 749 mmHg 87%
02:00 +16°C° 0 mm 0 mps 749 mmHg 88%
03:00 +16°C° 0 mm 0 mps 749 mmHg 89%
04:00 +17°C° 0 mm 0 mps 749 mmHg 88%
05:00 +18°C° 0 mm 0 mps 749 mmHg 88%
06:00 +18°C° 0 mm 0 mps 749 mmHg 87%
07:00 +20°C° 0 mm 0 mps 749 mmHg 83%
08:00 +21°C° 0 mm 0 mps 749 mmHg 78%
09:00 +23°C° 0 mm 0 mps 749 mmHg 73%
10:00 +26°C° 0.4 mm 1 mps 749 mmHg 68%
11:00 +26°C° 0.4 mm 1 mps 748 mmHg 63%
12:00 +27°C° 0.4 mm 1 mps 748 mmHg 58%
13:00 +27°C° 0 mm 1 mps 748 mmHg 58%
14:00 +27°C° 0 mm 1 mps 747 mmHg 59%
15:00 +27°C° 0 mm 1 mps 747 mmHg 60%
16:00 +27°C° 0.1 mm 1 mps 747 mmHg 63%
17:00 +27°C° 0.1 mm 1 mps 747 mmHg 66%
18:00 +27°C° 0.1 mm 1 mps 746 mmHg 70%
19:00 +25°C° 0.5 mm 1 mps 746 mmHg 74%
20:00 +23°C° 0.5 mm 1 mps 746 mmHg 79%
21:00 +21°C° 0.5 mm 1 mps 746 mmHg 83%
22:00 +21°C° 0.6 mm 1 mps 746 mmHg 85%
23:00 +20°C° 0.6 mm 1 mps 746 mmHg 87%

Day after tomorrow, 16 June, Wednesday

Time Temperature Precipitation Wind Pressure Humidity
00:00 +20°C° 0.6 mm 1 mps 746 mmHg 88%
01:00 +19°C° 0.1 mm 1 mps 745 mmHg 89%
02:00 +19°C° 0.1 mm 1 mps 745 mmHg 91%
03:00 +18°C° 0.1 mm 2 mps 745 mmHg 92%
04:00 +19°C° 0.1 mm 1 mps 745 mmHg 92%
05:00 +19°C° 0.1 mm 1 mps 745 mmHg 92%
06:00 +20°C° 0.1 mm 1 mps 746 mmHg 93%
07:00 +20°C° 0 mm 2 mps 746 mmHg 88%
08:00 +21°C° 0 mm 3 mps 746 mmHg 84%
09:00 +22°C° 0 mm 3 mps 746 mmHg 80%
10:00 +23°C° 0.3 mm 4 mps 746 mmHg 75%
11:00 +25°C° 0.3 mm 5 mps 747 mmHg 69%
12:00 +26°C° 0.3 mm 5 mps 747 mmHg 64%
13:00 +26°C° 0.1 mm 5 mps 747 mmHg 63%
14:00 +26°C° 0.1 mm 5 mps 747 mmHg 62%
15:00 +26°C° 0.1 mm 5 mps 748 mmHg 61%
16:00 +25°C° 0.1 mm 5 mps 748 mmHg 64%
17:00 +23°C° 0.1 mm 5 mps 748 mmHg 67%
18:00 +22°C° 0.1 mm 5 mps 749 mmHg 71%
19:00 +20°C° 0 mm 5 mps 750 mmHg 73%
20:00 +19°C° 0 mm 4 mps 750 mmHg 76%
21:00 +17°C° 0 mm 3 mps 751 mmHg 78%
22:00 +16°C° 0 mm 3 mps 751 mmHg 79%
23:00 +14°C° 0 mm 3 mps 752 mmHg 80%

17 June, Thursday

Time Temperature Precipitation Wind Pressure Humidity
00:00 +14°C° 0 mm 2 mps 752 mmHg 81%
01:00 +12°C° 0 mm 3 mps 752 mmHg 80%
02:00 +12°C° 0 mm 3 mps 753 mmHg 80%
03:00 +11°C° 0 mm 3 mps 753 mmHg 80%
04:00 +12°C° 0 mm 3 mps 754 mmHg 79%
05:00 +12°C° 0 mm 3 mps 754 mmHg 78%
06:00 +13°C° 0 mm 3 mps 755 mmHg 77%
07:00 +16°C° 0 mm 3 mps 755 mmHg 69%
08:00 +17°C° 0 mm 4 mps 755 mmHg 62%
09:00 +19°C° 0 mm 4 mps 756 mmHg 54%
10:00 +20°C° 0 mm 4 mps 756 mmHg 52%
11:00 +21°C° 0 mm 4 mps 756 mmHg 49%
12:00 +22°C° 0 mm 4 mps 756 mmHg 46%
13:00 +22°C° 0 mm 4 mps 756 mmHg 47%
14:00 +23°C° 0 mm 4 mps 756 mmHg 47%
15:00 +23°C° 0 mm 4 mps 757 mmHg 48%
16:00 +23°C° 0 mm 4 mps 757 mmHg 53%
17:00 +22°C° 0 mm 4 mps 757 mmHg 57%
18:00 +22°C° 0 mm 3 mps 757 mmHg 61%
19:00 +20°C° 0 mm 3 mps 757 mmHg 65%
20:00 +18°C° 0 mm 3 mps 757 mmHg 70%
21:00 +16°C° 0 mm 2 mps 757 mmHg 74%
22:00 +16°C° 0 mm 2 mps 757 mmHg 74%
23:00 +15°C° 0 mm 2 mps 758 mmHg 74%

18 June, Friday

Time Temperature Precipitation Wind Pressure Humidity
00:00 +14°C° 0 mm 2 mps 758 mmHg 74%
01:00 +14°C° 0 mm 1 mps 758 mmHg 75%
02:00 +14°C° 0 mm 1 mps 758 mmHg 76%
03:00 +13°C° 0 mm 1 mps 758 mmHg 78%
04:00 +14°C° 0 mm 1 mps 759 mmHg 78%
05:00 +15°C° 0 mm 1 mps 759 mmHg 77%
06:00 +16°C° 0 mm 1 mps 759 mmHg 77%
07:00 +19°C° 0 mm 1 mps 759 mmHg 72%
08:00 +20°C° 0 mm 1 mps 759 mmHg 66%
09:00 +22°C° 0 mm 1 mps 759 mmHg 61%
10:00 +23°C° 0 mm 1 mps 759 mmHg 57%
11:00 +24°C° 0 mm 1 mps 759 mmHg 54%
12:00 +25°C° 0 mm 1 mps 759 mmHg 50%
13:00 +24°C° 0 mm 0 mps 759 mmHg 49%
14:00 +24°C° 0 mm 0 mps 759 mmHg 49%
15:00 +24°C° 0 mm 0 mps 759 mmHg 48%
16:00 +26°C° 0 mm 1 mps 759 mmHg 53%
17:00 +26°C° 0 mm 1 mps 759 mmHg 58%
18:00 +26°C° 0 mm 1 mps 758 mmHg 63%
19:00 +24°C° 0 mm 1 mps 758 mmHg 69%
20:00 +22°C° 0 mm 1 mps 759 mmHg 75%
21:00 +19°C° 0 mm 2 mps 759 mmHg 81%
22:00 +18°C° 0 mm 2 mps 759 mmHg 83%
23:00 +17°C° 0 mm 2 mps 759 mmHg 84%

19 June, Saturday

Time Temperature Precipitation Wind Pressure Humidity
00:00 +17°C° 0 mm 2 mps 759 mmHg 86%
01:00 +16°C° 0 mm 2 mps 759 mmHg 87%
02:00 +16°C° 0 mm 1 mps 760 mmHg 88%
03:00 +15°C° 0 mm 1 mps 760 mmHg 89%
04:00 +16°C° 0 mm 1 mps 760 mmHg 87%
05:00 +18°C° 0 mm 1 mps 760 mmHg 86%
06:00 +19°C° 0 mm 1 mps 761 mmHg 84%
07:00 +20°C° 0 mm 1 mps 761 mmHg 78%
08:00 +21°C° 0 mm 2 mps 760 mmHg 73%
09:00 +23°C° 0 mm 2 mps 760 mmHg 68%
10:00 +24°C° 0 mm 2 mps 760 mmHg 64%
11:00 +25°C° 0 mm 2 mps 760 mmHg 61%
12:00 +26°C° 0 mm 2 mps 760 mmHg 57%
13:00 +27°C° 0 mm 2 mps 760 mmHg 56%
14:00 +27°C° 0 mm 2 mps 760 mmHg 55%
15:00 +27°C° 0 mm 2 mps 759 mmHg 55%
16:00 +27°C° 0 mm 2 mps 759 mmHg 58%
17:00 +27°C° 0 mm 2 mps 759 mmHg 62%
18:00 +26°C° 0 mm 1 mps 759 mmHg 65%
19:00 +25°C° 0 mm 2 mps 759 mmHg 70%
20:00 +23°C° 0 mm 2 mps 759 mmHg 75%
21:00 +20°C° 0 mm 2 mps 759 mmHg 80%
22:00 +19°C° 0 mm 2 mps 759 mmHg 81%
23:00 +19°C° 0 mm 2 mps 759 mmHg 83%
Show more

We Need Your Consent

Meteoprog and our Service Providers may store and access personal data such as cookies, device identifiers or other similar technologies on your device and process such data to personalise content and ads, as well as provide social media features and to analyse the traffic.

  • Store and/or access information on your device

    Cookies, device identifiers or other information can be stored or accessed on your device for the purposes indicated above.

  • Personalised ads and content, ad and content measurement, audience insights, and products development

    Ads and content can be personalised based on a profile. More data can be added to better personalise ads and content. Ad and content performance can be measured. Insights about the audience who saw the ads and content can be derived. Such data can be used to develop or improve user’s experience, systems and software.

By clicking ‘I Agree’ you will allow the use of indicated cookies, device identifiers, web beacons or other similar technologies. Your settings can be changed in the browser on your device.

For certain purposes, legitimate interests may be relied on, rather than consent. You can read more about this in our Privacy and Cookie Policy.